Find Starlink 34498

NORAD ID: 64421 Int'l Des: 2025-129 Owner: SPXS Country: US Constellation: starlink operational
LEOCIRCULAR

現在のビュー

3D地球を読み込み中...

About Starlink 34498

Starlink 34498 (NORAD 64421) is a starlink constellation satellite (v2 mini) launched Jun 17, 2025 by SPXS of US. It operates in LEO, CIRCULAR orbit with a mass of 575.00 kg.

次回通過

Passes for default location (London). Set your location on the main map for personalized predictions.

高度履歴

Loading altitude history...

軌道要素

1 64421U 25129K 26263.66668981 -.00010746 00000-0 -36995-3 0 9990
2 64421 70.0001 300.3592 0003348 275.6384 152.2076 15.29576742 5738
Epoch: Sep 20, 2026 • Age: 17 hours

現在のステータス

高度 499.2 km
遠地点 / 近地点 N/A
速度 7.62 km/s
衛星直下点 -65.70°S, 115.42°E
打ち上げ日 Jun 17, 2025
運用期間 1.2 years
タイプ internet

技術仕様

分類 Payload
質量 575.00 kg
乾燥質量 530.00 kg
長さ 0.30 m
スパン 29.00 m
形状 ? Box + pan
製造者 SPXS
バスタイプ Starlink V2MO
フェーズステータス In Orbit
所有者/国 SPXS/US

Most Searched